Year,Month,Day,Hour,Minute,Value (Times are PST for temperature in C)
2018,02,03,00,00,6.80
2018,02,03,00,01,6.80
2018,02,03,00,02,6.80
2018,02,03,00,03,6.80
2018,02,03,00,04,6.80
2018,02,03,00,05,6.80
2018,02,03,00,06,6.80
2018,02,03,00,07,6.80
2018,02,03,00,08,6.80
2018,02,03,00,09,6.80
2018,02,03,00,10,6.80
2018,02,03,00,11,6.80
2018,02,03,00,12,6.70
2018,02,03,00,13,6.70
2018,02,03,00,14,6.70
2018,02,03,00,15,6.70
2018,02,03,00,16,6.70
2018,02,03,00,17,6.70
2018,02,03,00,18,6.70
2018,02,03,00,19,6.70
2018,02,03,00,20,6.70
2018,02,03,00,21,6.70
2018,02,03,00,22,6.70
2018,02,03,00,23,6.70
2018,02,03,00,24,6.70
2018,02,03,00,25,6.70
2018,02,03,00,26,6.70
2018,02,03,00,27,6.70
2018,02,03,00,28,6.70
2018,02,03,00,29,6.70
2018,02,03,00,30,6.70
2018,02,03,00,31,6.70
2018,02,03,00,32,6.70
2018,02,03,00,33,6.70
2018,02,03,00,34,6.70
2018,02,03,00,35,6.70
2018,02,03,00,36,6.70
2018,02,03,00,37,6.60
2018,02,03,00,38,6.60
2018,02,03,00,39,6.60
2018,02,03,00,40,6.60
2018,02,03,00,41,6.60
2018,02,03,00,42,6.60
2018,02,03,00,43,6.60
2018,02,03,00,44,6.50
2018,02,03,00,45,6.50
2018,02,03,00,46,6.50
2018,02,03,00,47,6.50
2018,02,03,00,48,6.50
2018,02,03,00,49,6.50
2018,02,03,00,50,6.50
2018,02,03,00,51,6.50
2018,02,03,00,52,6.50
2018,02,03,00,53,6.50
2018,02,03,00,54,6.50
2018,02,03,00,55,6.50
2018,02,03,00,56,6.50
2018,02,03,00,57,6.50
2018,02,03,00,58,6.50
2018,02,03,00,59,6.50
2018,02,03,01,00,6.50
2018,02,03,01,01,6.50
2018,02,03,01,02,6.50
2018,02,03,01,03,6.60
2018,02,03,01,04,6.60
2018,02,03,01,05,6.60
2018,02,03,01,06,6.60
2018,02,03,01,07,6.50
2018,02,03,01,08,6.50
2018,02,03,01,09,6.50
2018,02,03,01,10,6.50
2018,02,03,01,11,6.50
2018,02,03,01,12,6.40
2018,02,03,01,13,6.40
2018,02,03,01,14,6.40
2018,02,03,01,15,6.40
2018,02,03,01,16,6.40
2018,02,03,01,17,6.40
2018,02,03,01,18,6.40
2018,02,03,01,19,6.40
2018,02,03,01,20,6.40
2018,02,03,01,21,6.40
2018,02,03,01,22,6.40
2018,02,03,01,23,6.30
2018,02,03,01,24,6.30
2018,02,03,01,25,6.30
2018,02,03,01,26,6.30
2018,02,03,01,27,6.30
2018,02,03,01,28,6.30
2018,02,03,01,29,6.30
2018,02,03,01,30,6.30
2018,02,03,01,31,6.30
2018,02,03,01,32,6.30
2018,02,03,01,33,6.30
2018,02,03,01,34,6.30
2018,02,03,01,35,6.30
2018,02,03,01,36,6.20
2018,02,03,01,37,6.20
2018,02,03,01,38,6.20
2018,02,03,01,39,6.20
2018,02,03,01,40,6.20
2018,02,03,01,41,6.20
2018,02,03,01,42,6.20
2018,02,03,01,43,6.10
2018,02,03,01,44,6.10
2018,02,03,01,45,6.10
2018,02,03,01,46,6.10
2018,02,03,01,47,6.10
2018,02,03,01,48,6.10
2018,02,03,01,49,6.10
2018,02,03,01,50,6.10
2018,02,03,01,51,6.10
2018,02,03,01,52,6.10
2018,02,03,01,53,6.10
2018,02,03,01,54,6.10
2018,02,03,01,55,6.10
2018,02,03,01,56,6.10
2018,02,03,01,57,6.10
2018,02,03,01,58,6.10
2018,02,03,01,59,6.10
2018,02,03,02,00,6.10
2018,02,03,02,01,6.10
2018,02,03,02,02,6.10
2018,02,03,02,03,6.20
2018,02,03,02,04,6.20
2018,02,03,02,05,6.20
2018,02,03,02,06,6.10
2018,02,03,02,07,6.10
2018,02,03,02,08,6.10
2018,02,03,02,09,6.10
2018,02,03,02,10,6.10
2018,02,03,02,11,6.00
2018,02,03,02,12,6.00
2018,02,03,02,13,6.00
2018,02,03,02,14,5.90
2018,02,03,02,15,5.90
2018,02,03,02,16,5.90
2018,02,03,02,17,5.90
2018,02,03,02,18,5.90
2018,02,03,02,19,6.00
2018,02,03,02,20,5.90
2018,02,03,02,21,5.90
2018,02,03,02,22,5.90
2018,02,03,02,23,5.90
2018,02,03,02,24,5.90
2018,02,03,02,25,5.90
2018,02,03,02,26,5.80
2018,02,03,02,27,5.80
2018,02,03,02,28,5.80
2018,02,03,02,29,5.80
2018,02,03,02,30,5.80
2018,02,03,02,31,5.80
2018,02,03,02,32,5.80
2018,02,03,02,33,5.80
2018,02,03,02,34,5.80
2018,02,03,02,35,5.80
2018,02,03,02,36,5.80
2018,02,03,02,37,5.80
2018,02,03,02,38,5.70
2018,02,03,02,39,5.70
2018,02,03,02,40,5.70
2018,02,03,02,41,5.70
2018,02,03,02,42,5.70
2018,02,03,02,43,5.60
2018,02,03,02,44,5.60
2018,02,03,02,45,5.60
2018,02,03,02,46,5.60
2018,02,03,02,47,5.60
2018,02,03,02,48,5.60
2018,02,03,02,49,5.60
2018,02,03,02,50,5.50
2018,02,03,02,51,5.50
2018,02,03,02,52,5.50
2018,02,03,02,53,5.40
2018,02,03,02,54,5.40
2018,02,03,02,55,5.40
2018,02,03,02,56,5.40
2018,02,03,02,57,5.40
2018,02,03,02,58,5.40
2018,02,03,02,59,5.30
2018,02,03,03,00,5.30
2018,02,03,03,01,5.30
2018,02,03,03,02,5.30
2018,02,03,03,03,5.20
2018,02,03,03,04,5.20
2018,02,03,03,05,5.20
2018,02,03,03,06,5.20
2018,02,03,03,07,5.20
2018,02,03,03,08,5.10
2018,02,03,03,09,5.10
2018,02,03,03,10,5.10
2018,02,03,03,11,5.10
2018,02,03,03,12,5.10
2018,02,03,03,13,5.10
2018,02,03,03,14,5.10
2018,02,03,03,15,5.10
2018,02,03,03,16,5.10
2018,02,03,03,17,5.10
2018,02,03,03,18,5.10
2018,02,03,03,19,5.10
2018,02,03,03,20,5.10
2018,02,03,03,21,5.10
2018,02,03,03,22,5.10
2018,02,03,03,23,5.10
2018,02,03,03,24,5.10
2018,02,03,03,25,5.10
2018,02,03,03,26,5.10
2018,02,03,03,27,5.10
2018,02,03,03,28,5.20
2018,02,03,03,29,5.20
2018,02,03,03,30,5.20
2018,02,03,03,31,5.20
2018,02,03,03,32,5.20
2018,02,03,03,33,5.30
2018,02,03,03,34,5.30
2018,02,03,03,35,5.40
2018,02,03,03,36,5.40
2018,02,03,03,37,5.50
2018,02,03,03,38,5.60
2018,02,03,03,39,5.60
2018,02,03,03,40,5.60
2018,02,03,03,41,5.60
2018,02,03,03,42,5.50
2018,02,03,03,43,5.50
2018,02,03,03,44,5.40
2018,02,03,03,45,5.40
2018,02,03,03,46,5.40
2018,02,03,03,47,5.30
2018,02,03,03,48,5.30
2018,02,03,03,49,5.20
2018,02,03,03,50,5.20
2018,02,03,03,51,5.10
2018,02,03,03,52,5.10
2018,02,03,03,53,5.10
2018,02,03,03,54,5.00
2018,02,03,03,55,5.00
2018,02,03,03,56,5.00
2018,02,03,03,57,5.00
2018,02,03,03,58,4.90
2018,02,03,03,59,4.90
2018,02,03,04,00,4.90
2018,02,03,04,01,4.90
2018,02,03,04,02,4.90
2018,02,03,04,03,4.90
2018,02,03,04,04,4.90
2018,02,03,04,05,4.90
2018,02,03,04,06,5.00
2018,02,03,04,07,5.00
2018,02,03,04,08,5.10
2018,02,03,04,09,5.10
2018,02,03,04,10,5.10
2018,02,03,04,11,5.00
2018,02,03,04,12,5.00
2018,02,03,04,13,4.90
2018,02,03,04,14,4.90
2018,02,03,04,15,4.80
2018,02,03,04,16,4.80
2018,02,03,04,17,4.70
2018,02,03,04,18,4.70
2018,02,03,04,19,4.70
2018,02,03,04,20,4.70
2018,02,03,04,21,4.70
2018,02,03,04,22,4.60
2018,02,03,04,23,4.60
2018,02,03,04,24,4.60
2018,02,03,04,25,4.60
2018,02,03,04,26,4.50
2018,02,03,04,27,4.50
2018,02,03,04,28,4.50
2018,02,03,04,29,4.50
2018,02,03,04,30,4.50
2018,02,03,04,31,4.40
2018,02,03,04,32,4.40
2018,02,03,04,33,4.30
2018,02,03,04,34,4.30
2018,02,03,04,35,4.30
2018,02,03,04,36,4.30
2018,02,03,04,37,4.20
2018,02,03,04,38,4.20
2018,02,03,04,39,4.20
2018,02,03,04,40,4.20
2018,02,03,04,41,4.20
2018,02,03,04,42,4.20
2018,02,03,04,43,4.20
2018,02,03,04,44,4.20
2018,02,03,04,45,4.20
2018,02,03,04,46,4.20
2018,02,03,04,47,4.20
2018,02,03,04,48,4.20
2018,02,03,04,49,4.20
2018,02,03,04,50,4.20
2018,02,03,04,51,4.20
2018,02,03,04,52,4.20
2018,02,03,04,53,4.20
2018,02,03,04,54,4.20
2018,02,03,04,55,4.20
2018,02,03,04,56,4.20
2018,02,03,04,57,4.20
2018,02,03,04,58,4.20
2018,02,03,04,59,4.20
2018,02,03,05,00,4.20
2018,02,03,05,01,4.20
2018,02,03,05,02,4.20
2018,02,03,05,03,4.30
2018,02,03,05,04,4.30
2018,02,03,05,05,4.30
2018,02,03,05,06,4.30
2018,02,03,05,07,4.30
2018,02,03,05,08,4.30
2018,02,03,05,09,4.30
2018,02,03,05,10,4.30
2018,02,03,05,11,4.30
2018,02,03,05,12,4.30
2018,02,03,05,13,4.30
2018,02,03,05,14,4.20
2018,02,03,05,15,4.20
2018,02,03,05,16,4.20
2018,02,03,05,17,4.20
2018,02,03,05,18,4.20
2018,02,03,05,19,4.20
2018,02,03,05,20,4.20
2018,02,03,05,21,4.20
2018,02,03,05,22,4.20
2018,02,03,05,23,4.20
2018,02,03,05,24,4.20
2018,02,03,05,25,4.10
2018,02,03,05,26,4.10
2018,02,03,05,27,4.10
2018,02,03,05,28,4.00
2018,02,03,05,29,4.00
2018,02,03,05,30,4.00
2018,02,03,05,31,3.90
2018,02,03,05,32,3.90
2018,02,03,05,33,3.90
2018,02,03,05,34,3.80
2018,02,03,05,35,3.80
2018,02,03,05,36,3.80
2018,02,03,05,37,3.80
2018,02,03,05,38,3.80
2018,02,03,05,39,3.70
2018,02,03,05,40,3.70
2018,02,03,05,41,3.70
2018,02,03,05,42,3.60
2018,02,03,05,43,3.60
2018,02,03,05,44,3.60
2018,02,03,05,45,3.60
2018,02,03,05,46,3.60
2018,02,03,05,47,3.60
2018,02,03,05,48,3.60
2018,02,03,05,49,3.60
2018,02,03,05,50,3.60
2018,02,03,05,51,3.60
2018,02,03,05,52,3.60
2018,02,03,05,53,3.60
2018,02,03,05,54,3.60
2018,02,03,05,55,3.60
2018,02,03,05,56,3.60
2018,02,03,05,57,3.60
2018,02,03,05,58,3.70
2018,02,03,05,59,3.70
2018,02,03,06,00,3.70
2018,02,03,06,01,3.70
2018,02,03,06,02,3.60
2018,02,03,06,03,3.60
2018,02,03,06,04,3.60
2018,02,03,06,05,3.60
2018,02,03,06,06,3.60
2018,02,03,06,07,3.60
2018,02,03,06,08,3.50
2018,02,03,06,09,3.50
2018,02,03,06,10,3.50
2018,02,03,06,11,3.50
2018,02,03,06,12,3.50
2018,02,03,06,13,3.40
2018,02,03,06,14,3.40
2018,02,03,06,15,3.40
2018,02,03,06,16,3.40
2018,02,03,06,17,3.50
2018,02,03,06,18,3.50
2018,02,03,06,19,3.50
2018,02,03,06,20,3.50
2018,02,03,06,21,3.50
2018,02,03,06,22,3.50
2018,02,03,06,23,3.50
2018,02,03,06,24,3.50
2018,02,03,06,25,3.50
2018,02,03,06,26,3.50
2018,02,03,06,27,3.50
2018,02,03,06,28,3.50
2018,02,03,06,29,3.50
2018,02,03,06,30,3.50
2018,02,03,06,31,3.40
2018,02,03,06,32,3.40
2018,02,03,06,33,3.40
2018,02,03,06,34,3.40
2018,02,03,06,35,3.30
2018,02,03,06,36,3.30
2018,02,03,06,37,3.30
2018,02,03,06,38,3.30
2018,02,03,06,39,3.30
2018,02,03,06,40,3.30
2018,02,03,06,41,3.30
2018,02,03,06,42,3.30
2018,02,03,06,43,3.30
2018,02,03,06,44,3.20
2018,02,03,06,45,3.20
2018,02,03,06,46,3.20
2018,02,03,06,47,3.20
2018,02,03,06,48,3.20
2018,02,03,06,49,3.10
2018,02,03,06,50,3.10
2018,02,03,06,51,3.10
2018,02,03,06,52,3.10
2018,02,03,06,53,3.10
2018,02,03,06,54,3.10
2018,02,03,06,55,3.10
2018,02,03,06,56,3.20
2018,02,03,06,57,3.10
2018,02,03,06,58,3.10
2018,02,03,06,59,3.10
2018,02,03,07,00,3.10
2018,02,03,07,01,3.10
2018,02,03,07,02,3.10
2018,02,03,07,03,3.10
2018,02,03,07,04,3.00
2018,02,03,07,05,3.00
2018,02,03,07,06,3.00
2018,02,03,07,07,2.90
2018,02,03,07,08,2.90
2018,02,03,07,09,2.90
2018,02,03,07,10,2.90
2018,02,03,07,11,2.90
2018,02,03,07,12,2.90
2018,02,03,07,13,2.90
2018,02,03,07,14,2.90
2018,02,03,07,15,2.90
2018,02,03,07,16,2.90
2018,02,03,07,17,2.90
2018,02,03,07,18,2.90
2018,02,03,07,19,2.90
2018,02,03,07,20,2.90
2018,02,03,07,21,2.90
2018,02,03,07,22,2.80
2018,02,03,07,23,2.80
2018,02,03,07,24,2.80
2018,02,03,07,25,2.80
2018,02,03,07,26,2.80
2018,02,03,07,27,2.80
2018,02,03,07,28,2.80
2018,02,03,07,29,2.80
2018,02,03,07,30,2.80
2018,02,03,07,31,2.80
2018,02,03,07,32,2.80
2018,02,03,07,33,2.80
2018,02,03,07,34,2.80
2018,02,03,07,35,2.80
2018,02,03,07,36,2.80
2018,02,03,07,37,2.80
2018,02,03,07,38,2.80
2018,02,03,07,39,2.90
2018,02,03,07,40,2.90
2018,02,03,07,41,2.90
2018,02,03,07,42,2.90
2018,02,03,07,43,2.90
2018,02,03,07,44,2.90
2018,02,03,07,45,2.90
2018,02,03,07,46,2.90
2018,02,03,07,47,2.90
2018,02,03,07,48,2.90
2018,02,03,07,49,3.00
2018,02,03,07,50,3.00
2018,02,03,07,51,3.00
2018,02,03,07,52,3.10
2018,02,03,07,53,3.10
2018,02,03,07,54,3.10
2018,02,03,07,55,3.10
2018,02,03,07,56,3.10
2018,02,03,07,57,3.20
2018,02,03,07,58,3.20
2018,02,03,07,59,3.20
2018,02,03,08,00,3.20
2018,02,03,08,01,3.20
2018,02,03,08,02,3.20
2018,02,03,08,03,3.20
2018,02,03,08,04,3.20
2018,02,03,08,05,3.20
2018,02,03,08,06,3.10
2018,02,03,08,07,3.10
2018,02,03,08,08,3.10
2018,02,03,08,09,3.10
2018,02,03,08,10,3.10
2018,02,03,08,11,3.10
2018,02,03,08,12,3.10
2018,02,03,08,13,3.10
2018,02,03,08,14,3.10
2018,02,03,08,15,3.20
2018,02,03,08,16,3.20
2018,02,03,08,17,3.20
2018,02,03,08,18,3.20
2018,02,03,08,19,3.20
2018,02,03,08,20,3.20
2018,02,03,08,21,3.20
2018,02,03,08,22,3.20
2018,02,03,08,23,3.20
2018,02,03,08,24,3.20
2018,02,03,08,25,3.20
2018,02,03,08,26,3.30
2018,02,03,08,27,3.30
2018,02,03,08,28,3.30
2018,02,03,08,29,3.30
2018,02,03,08,30,3.40
2018,02,03,08,31,3.40
2018,02,03,08,32,3.40
2018,02,03,08,33,3.40
2018,02,03,08,34,3.40
2018,02,03,08,35,3.40
2018,02,03,08,36,3.50
2018,02,03,08,37,3.50
2018,02,03,08,38,3.50
2018,02,03,08,39,3.60
2018,02,03,08,40,3.70
2018,02,03,08,41,3.70
2018,02,03,08,42,3.80
2018,02,03,08,43,3.80
2018,02,03,08,44,3.80
2018,02,03,08,45,3.90
2018,02,03,08,46,3.90
2018,02,03,08,47,3.90
2018,02,03,08,48,3.90
2018,02,03,08,49,3.90
2018,02,03,08,50,3.90
2018,02,03,08,51,3.80
2018,02,03,08,52,3.80
2018,02,03,08,53,3.80
2018,02,03,08,54,3.80
2018,02,03,08,55,3.70
2018,02,03,08,56,3.70
2018,02,03,08,57,3.70
2018,02,03,08,58,3.70
2018,02,03,08,59,3.70
2018,02,03,09,00,3.70
2018,02,03,09,01,3.80
2018,02,03,09,02,3.80
2018,02,03,09,03,3.90
2018,02,03,09,04,3.90
2018,02,03,09,05,3.90
2018,02,03,09,06,4.00
2018,02,03,09,07,4.00
2018,02,03,09,08,4.00
2018,02,03,09,09,4.00
2018,02,03,09,10,4.00
2018,02,03,09,11,4.00
2018,02,03,09,12,4.00
2018,02,03,09,13,4.00
2018,02,03,09,14,4.00
2018,02,03,09,15,4.00
2018,02,03,09,16,4.00
2018,02,03,09,17,4.00
2018,02,03,09,18,4.00
2018,02,03,10,09,6.00
2018,02,03,10,10,6.10
2018,02,03,10,11,6.10
2018,02,03,10,12,6.10
2018,02,03,10,13,6.10
2018,02,03,10,14,6.20
2018,02,03,10,15,6.20
2018,02,03,10,16,6.20
2018,02,03,10,17,6.20
2018,02,03,10,18,6.30
2018,02,03,10,19,6.30
2018,02,03,10,20,6.30
2018,02,03,10,21,6.30
2018,02,03,10,22,6.40
2018,02,03,10,23,6.50
2018,02,03,10,24,6.60
2018,02,03,10,25,6.60
2018,02,03,10,26,6.60
2018,02,03,10,27,6.70
2018,02,03,10,28,6.70
2018,02,03,10,29,6.70
2018,02,03,10,30,6.80
2018,02,03,10,31,6.80
2018,02,03,10,32,6.80
2018,02,03,10,33,6.80
2018,02,03,10,34,6.80
2018,02,03,10,35,6.90
2018,02,03,10,36,6.90
2018,02,03,10,37,6.90
2018,02,03,10,38,6.90
2018,02,03,10,39,6.90
2018,02,03,10,40,6.90
2018,02,03,10,41,6.90
2018,02,03,10,42,6.90
2018,02,03,10,43,6.90
2018,02,03,10,44,7.00
2018,02,03,10,45,7.00
2018,02,03,10,46,7.00
2018,02,03,10,47,7.00
2018,02,03,10,48,7.00
2018,02,03,10,49,7.00
2018,02,03,10,50,7.10
2018,02,03,10,51,7.10
2018,02,03,10,52,7.10
2018,02,03,10,53,7.10
2018,02,03,10,54,7.10
2018,02,03,10,55,7.10
2018,02,03,10,56,7.20
2018,02,03,10,57,7.20
2018,02,03,10,58,7.20
2018,02,03,10,59,7.20
2018,02,03,11,00,7.20
2018,02,03,11,01,7.30
2018,02,03,11,02,7.30
2018,02,03,11,03,7.30
2018,02,03,11,04,7.30
2018,02,03,11,05,7.30
2018,02,03,11,06,7.30
2018,02,03,11,07,7.40
2018,02,03,11,08,7.40
2018,02,03,11,09,7.40
2018,02,03,11,10,7.40
2018,02,03,11,11,7.40
2018,02,03,11,12,7.50
2018,02,03,11,13,7.50
2018,02,03,11,14,7.50
2018,02,03,11,15,7.50
2018,02,03,11,16,7.50
2018,02,03,11,17,7.60
2018,02,03,11,18,7.60
2018,02,03,11,19,7.60
2018,02,03,11,20,7.60
2018,02,03,11,21,7.70
2018,02,03,11,22,7.70
2018,02,03,11,23,7.70
2018,02,03,11,24,7.70
2018,02,03,11,25,7.80
2018,02,03,11,26,7.80
2018,02,03,11,27,7.80
2018,02,03,11,28,7.80
2018,02,03,11,29,7.80
2018,02,03,11,30,7.80
2018,02,03,11,31,7.80
2018,02,03,11,32,7.80
2018,02,03,11,33,7.80
2018,02,03,11,34,7.80
2018,02,03,11,35,7.80
2018,02,03,11,36,7.80
2018,02,03,11,37,7.80
2018,02,03,11,38,7.80
2018,02,03,11,39,7.80
2018,02,03,11,40,7.80
2018,02,03,11,41,7.80
2018,02,03,11,42,7.80
2018,02,03,11,43,7.80
2018,02,03,11,44,7.80
2018,02,03,11,45,7.80
2018,02,03,11,46,7.80
2018,02,03,11,47,7.80
2018,02,03,11,48,7.80
2018,02,03,11,49,7.70
2018,02,03,11,50,7.70
2018,02,03,11,51,7.70
2018,02,03,11,52,7.70
2018,02,03,11,53,7.70
2018,02,03,11,54,7.70
2018,02,03,11,55,7.70
2018,02,03,11,56,7.80
2018,02,03,11,57,7.80
2018,02,03,11,58,7.80
2018,02,03,11,59,7.90
2018,02,03,12,00,7.90
2018,02,03,12,01,7.90
2018,02,03,12,02,7.90
2018,02,03,12,03,7.90
2018,02,03,12,04,7.90
2018,02,03,12,05,8.00
2018,02,03,12,06,8.00
2018,02,03,12,07,8.10
2018,02,03,12,08,8.10
2018,02,03,12,09,8.10
2018,02,03,12,10,8.10
2018,02,03,12,11,8.20
2018,02,03,12,12,8.20
2018,02,03,12,13,8.20
2018,02,03,12,14,8.20
2018,02,03,12,15,8.20
2018,02,03,12,16,8.20
2018,02,03,12,17,8.20
2018,02,03,12,18,8.20
2018,02,03,12,19,8.20
2018,02,03,12,20,8.20
2018,02,03,12,21,8.20
2018,02,03,12,22,8.20
2018,02,03,12,23,8.20
2018,02,03,12,24,8.20
2018,02,03,12,25,8.30
2018,02,03,12,26,8.30
2018,02,03,12,27,8.30
2018,02,03,12,28,8.30
2018,02,03,12,29,8.40
2018,02,03,12,30,8.40
2018,02,03,12,31,8.40
2018,02,03,12,32,8.40
2018,02,03,12,33,8.50
2018,02,03,12,34,8.50
2018,02,03,12,35,8.60
2018,02,03,12,36,8.60
2018,02,03,12,37,8.60
2018,02,03,12,38,8.60
2018,02,03,12,39,8.70
2018,02,03,12,40,8.70
2018,02,03,12,41,8.70
2018,02,03,12,42,8.70
2018,02,03,12,43,8.70
2018,02,03,12,44,8.70
2018,02,03,12,45,8.80
2018,02,03,12,46,8.80
2018,02,03,12,47,8.80
2018,02,03,12,48,8.80
2018,02,03,12,49,8.80
2018,02,03,12,50,8.80
2018,02,03,12,51,8.80
2018,02,03,12,52,8.80
2018,02,03,12,53,8.80
2018,02,03,12,54,8.80
2018,02,03,12,55,8.80
2018,02,03,12,56,8.80
2018,02,03,12,57,8.80
2018,02,03,12,58,8.80
2018,02,03,12,59,8.80
2018,02,03,13,00,8.90
2018,02,03,13,01,8.90
2018,02,03,13,02,8.90
2018,02,03,13,03,9.00
2018,02,03,13,04,9.00
2018,02,03,13,05,9.10
2018,02,03,13,06,9.10
2018,02,03,13,07,9.10
2018,02,03,13,08,9.20
2018,02,03,13,09,9.20
2018,02,03,13,10,9.20
2018,02,03,13,11,9.20
2018,02,03,13,12,9.20
2018,02,03,13,13,9.30
2018,02,03,13,14,9.30
2018,02,03,13,15,9.30
2018,02,03,13,16,9.30
2018,02,03,13,17,9.30
2018,02,03,13,18,9.30
2018,02,03,13,19,9.20
2018,02,03,13,20,9.20
2018,02,03,13,21,9.20
2018,02,03,13,22,9.20
2018,02,03,13,23,9.10
2018,02,03,13,24,9.10
2018,02,03,13,25,9.10
2018,02,03,13,26,9.10
2018,02,03,13,27,9.10
2018,02,03,13,28,9.20
2018,02,03,13,29,9.20
2018,02,03,13,30,9.20
2018,02,03,13,31,9.20
2018,02,03,13,32,9.20
2018,02,03,13,33,9.20
2018,02,03,13,34,9.30
2018,02,03,13,35,9.30
2018,02,03,13,36,9.30
2018,02,03,13,37,9.30
2018,02,03,13,38,9.30
2018,02,03,13,39,9.40
2018,02,03,13,40,9.40
2018,02,03,13,41,9.40
2018,02,03,13,42,9.40
2018,02,03,13,43,9.50
2018,02,03,13,44,9.50
2018,02,03,13,45,9.40
2018,02,03,13,46,9.40
2018,02,03,13,47,9.40
2018,02,03,13,48,9.40
2018,02,03,13,49,9.40
2018,02,03,13,50,9.40
2018,02,03,13,51,9.40
2018,02,03,13,52,9.40
2018,02,03,13,53,9.40
2018,02,03,13,54,9.40
2018,02,03,13,55,9.40
2018,02,03,13,56,9.40
2018,02,03,13,57,9.40
2018,02,03,13,58,9.40
2018,02,03,13,59,9.40
2018,02,03,14,00,9.40
2018,02,03,14,01,9.40
2018,02,03,14,02,9.40
2018,02,03,14,03,9.40
2018,02,03,14,04,9.40
2018,02,03,14,05,9.40
2018,02,03,14,06,9.40
2018,02,03,14,07,9.40
2018,02,03,14,08,9.40
2018,02,03,14,09,9.40
2018,02,03,14,10,9.40
2018,02,03,14,11,9.40
2018,02,03,14,12,9.40
2018,02,03,14,13,9.40
2018,02,03,14,14,9.50
2018,02,03,14,15,9.50
2018,02,03,14,16,9.50
2018,02,03,14,17,9.50
2018,02,03,14,18,9.50
2018,02,03,14,19,9.50
2018,02,03,14,20,9.50
2018,02,03,14,21,9.50
2018,02,03,14,22,9.50
2018,02,03,14,23,9.50
2018,02,03,14,24,9.60
2018,02,03,14,25,9.60
2018,02,03,14,26,9.60
2018,02,03,14,27,9.60
2018,02,03,14,28,9.60
2018,02,03,14,29,9.60
2018,02,03,14,30,9.70
2018,02,03,14,31,9.70
2018,02,03,14,32,9.70
2018,02,03,14,33,9.70
2018,02,03,14,34,9.70
2018,02,03,14,35,9.70
2018,02,03,14,36,9.70
2018,02,03,14,37,9.70
2018,02,03,14,38,9.60
2018,02,03,14,39,9.60
2018,02,03,14,40,9.60
2018,02,03,14,41,9.60
2018,02,03,14,42,9.60
2018,02,03,14,43,9.60
2018,02,03,14,44,9.60
2018,02,03,14,45,9.60
2018,02,03,14,46,9.60
2018,02,03,14,47,9.60
2018,02,03,14,48,9.60
2018,02,03,14,49,9.60
2018,02,03,14,50,9.60
2018,02,03,14,51,9.60
2018,02,03,14,52,9.60
2018,02,03,14,53,9.60
2018,02,03,14,54,9.60
2018,02,03,14,55,9.60
2018,02,03,14,56,9.60
2018,02,03,14,57,9.60
2018,02,03,14,58,9.60
2018,02,03,14,59,9.70
2018,02,03,15,00,9.70
2018,02,03,15,01,9.70
2018,02,03,15,02,9.70
2018,02,03,15,03,9.70
2018,02,03,15,04,9.70
2018,02,03,15,05,9.70
2018,02,03,15,06,9.70
2018,02,03,15,07,9.70
2018,02,03,15,08,9.60
2018,02,03,15,09,9.60
2018,02,03,15,10,9.60
2018,02,03,15,11,9.60
2018,02,03,15,12,9.60
2018,02,03,15,13,9.50
2018,02,03,15,14,9.50
2018,02,03,15,15,9.50
2018,02,03,15,16,9.50
2018,02,03,15,17,9.50
2018,02,03,15,18,9.50
2018,02,03,15,19,9.50
2018,02,03,15,20,9.40
2018,02,03,15,21,9.40
2018,02,03,15,22,9.40
2018,02,03,15,23,9.40
2018,02,03,15,24,9.40
2018,02,03,15,25,9.40
2018,02,03,15,26,9.40
2018,02,03,15,27,9.40
2018,02,03,15,28,9.40
2018,02,03,15,29,9.40
2018,02,03,15,30,9.40
2018,02,03,15,31,9.40
2018,02,03,15,32,9.40
2018,02,03,15,33,9.30
2018,02,03,15,34,9.30
2018,02,03,15,35,9.30
2018,02,03,15,36,9.30
2018,02,03,15,37,9.30
2018,02,03,15,38,9.30
2018,02,03,15,39,9.30
2018,02,03,15,40,9.30
2018,02,03,15,41,9.30
2018,02,03,15,42,9.30
2018,02,03,15,43,9.30
2018,02,03,15,44,9.30
2018,02,03,15,45,9.30
2018,02,03,15,46,9.30
2018,02,03,15,47,9.30
2018,02,03,15,48,9.20
2018,02,03,15,49,9.20
2018,02,03,15,50,9.20
2018,02,03,15,51,9.20
2018,02,03,15,52,9.20
2018,02,03,15,53,9.20
2018,02,03,15,54,9.20
2018,02,03,15,55,9.20
2018,02,03,15,56,9.20
2018,02,03,15,57,9.20
2018,02,03,15,58,9.20
2018,02,03,15,59,9.20
2018,02,03,16,00,9.20
2018,02,03,16,01,9.20
2018,02,03,16,02,9.20
2018,02,03,16,03,9.20
2018,02,03,16,04,9.20
2018,02,03,16,05,9.20
2018,02,03,16,06,9.20
2018,02,03,16,07,9.20
2018,02,03,16,08,9.20
2018,02,03,16,09,9.20
2018,02,03,16,10,9.20
2018,02,03,16,11,9.20
2018,02,03,16,12,9.20
2018,02,03,16,13,9.20
2018,02,03,16,14,9.20
2018,02,03,16,15,9.20
2018,02,03,16,16,9.20
2018,02,03,16,17,9.20
2018,02,03,16,18,9.20
2018,02,03,16,19,9.20
2018,02,03,16,20,9.20
2018,02,03,16,21,9.20
2018,02,03,16,22,9.20
2018,02,03,16,23,9.20
2018,02,03,16,24,9.10
2018,02,03,16,25,9.10
2018,02,03,16,26,9.10
2018,02,03,16,27,9.10
2018,02,03,16,28,9.10
2018,02,03,16,29,9.10
2018,02,03,16,30,9.10
2018,02,03,16,31,9.10
2018,02,03,16,32,9.10
2018,02,03,16,33,9.10
2018,02,03,16,34,9.10
2018,02,03,16,35,9.10
2018,02,03,16,36,9.00
2018,02,03,16,37,9.00
2018,02,03,16,38,9.00
2018,02,03,16,39,9.00
2018,02,03,16,40,8.90
2018,02,03,16,41,8.90
2018,02,03,16,42,8.90
2018,02,03,16,43,8.90
2018,02,03,16,44,8.80
2018,02,03,16,45,8.80
2018,02,03,16,46,8.80
2018,02,03,16,47,8.80
2018,02,03,16,48,8.70
2018,02,03,16,49,8.70
2018,02,03,16,50,8.70
2018,02,03,16,51,8.70
2018,02,03,16,52,8.70
2018,02,03,16,53,8.70
2018,02,03,16,54,8.70
2018,02,03,16,55,8.60
2018,02,03,16,56,8.60
2018,02,03,16,57,8.60
2018,02,03,16,58,8.60
2018,02,03,16,59,8.60
2018,02,03,17,00,8.60
2018,02,03,17,01,8.60
2018,02,03,17,02,8.60
2018,02,03,17,03,8.60
2018,02,03,17,04,8.60
2018,02,03,17,05,8.60
2018,02,03,17,06,8.50
2018,02,03,17,07,8.50
2018,02,03,17,08,8.50
2018,02,03,17,09,8.50
2018,02,03,17,10,8.50
2018,02,03,17,11,8.50
2018,02,03,17,12,8.40
2018,02,03,17,13,8.40
2018,02,03,17,14,8.40
2018,02,03,17,15,8.40
2018,02,03,17,16,8.40
2018,02,03,17,17,8.40
2018,02,03,17,18,8.40
2018,02,03,17,19,8.40
2018,02,03,17,20,8.30
2018,02,03,17,21,8.30
2018,02,03,17,22,8.30
2018,02,03,17,23,8.30
2018,02,03,17,24,8.30
2018,02,03,17,25,8.30
2018,02,03,17,26,8.30
2018,02,03,17,27,8.30
2018,02,03,17,28,8.30
2018,02,03,17,29,8.30
2018,02,03,17,30,8.30
2018,02,03,17,31,8.30
2018,02,03,17,32,8.30
2018,02,03,17,33,8.30
2018,02,03,17,34,8.30
2018,02,03,17,35,8.30
2018,02,03,17,36,8.30
2018,02,03,17,37,8.30
2018,02,03,17,38,8.30
2018,02,03,17,39,8.30
2018,02,03,17,40,8.30
2018,02,03,17,41,8.30
2018,02,03,17,42,8.30
2018,02,03,17,43,8.30
2018,02,03,17,44,8.30
2018,02,03,17,45,8.30
2018,02,03,17,46,8.30
2018,02,03,17,47,8.30
2018,02,03,17,48,8.30
2018,02,03,17,49,8.30
2018,02,03,17,50,8.30
2018,02,03,17,51,8.30
2018,02,03,17,52,8.30
2018,02,03,17,53,8.20
2018,02,03,17,54,8.20
2018,02,03,17,55,8.20
2018,02,03,17,56,8.20
2018,02,03,17,57,8.20
2018,02,03,17,58,8.20
2018,02,03,17,59,8.20
2018,02,03,18,00,8.20
2018,02,03,18,01,8.20
2018,02,03,18,02,8.20
2018,02,03,18,03,8.20
2018,02,03,18,04,8.20
2018,02,03,18,05,8.20
2018,02,03,18,06,8.20
2018,02,03,18,07,8.20
2018,02,03,18,08,8.20
2018,02,03,18,09,8.20
2018,02,03,18,10,8.20
2018,02,03,18,11,8.20
2018,02,03,18,12,8.20
2018,02,03,18,13,8.20
2018,02,03,18,14,8.20
2018,02,03,18,15,8.20
2018,02,03,18,16,8.20
2018,02,03,18,17,8.20
2018,02,03,18,18,8.20
2018,02,03,18,19,8.20
2018,02,03,18,20,8.20
2018,02,03,18,21,8.20
2018,02,03,18,22,8.20
2018,02,03,18,23,8.20
2018,02,03,18,24,8.10
2018,02,03,18,25,8.10
2018,02,03,18,26,8.20
2018,02,03,18,27,8.10
2018,02,03,18,28,8.10
2018,02,03,18,29,8.10
2018,02,03,18,30,8.10
2018,02,03,18,31,8.10
2018,02,03,18,32,8.10
2018,02,03,18,33,8.10
2018,02,03,18,34,8.10
2018,02,03,18,35,8.10
2018,02,03,18,36,8.10
2018,02,03,18,37,8.10
2018,02,03,18,38,8.10
2018,02,03,18,39,8.10
2018,02,03,18,40,8.10
2018,02,03,18,41,8.10
2018,02,03,18,42,8.10
2018,02,03,18,43,8.10
2018,02,03,18,44,8.10
2018,02,03,18,45,8.10
2018,02,03,18,46,8.10
2018,02,03,18,47,8.10
2018,02,03,18,48,8.10
2018,02,03,18,49,8.10
2018,02,03,18,50,8.10
2018,02,03,18,51,8.10
2018,02,03,18,52,8.10
2018,02,03,18,53,8.10
2018,02,03,18,54,8.10
2018,02,03,18,55,8.10
2018,02,03,18,56,8.10